Wind_Speed
63 63 63 61 57 54 52 52 51 49 47 46 44 42 40 42 44 43 41 42 45 47 48 46 41 35 34 36 36 33 34 35 35 34 33 33 32 32 32 32 31 30 32 34 31 28 28 28 27 26 26 27 26 26 26 26 25 25 25 24 24 24 23 22 22 22 22 22 22 21 21 20 19 18 18 18 19 19 18 17 17 17 16 16 16 17
64 64 62 59 57 54 52 53 53 53 51 49 46 43 42 41 40 42 43 43 42 42 43 44 44 38 35 38 39 36 34 35 36 35 34 34 34 33 33 33 32 33 35 34 30 29 29 29 28 28 27 28 27 28 28 28 28 27 26 26 27 25 23 23 23 23 23 23 22 22 22 21 19 18 19 20 20 20 20 19 18 17 17 18 18 19
67 64 61 59 57 54 53 54 55 55 54 51 47 44 43 42 39 39 42 44 44 43 40 41 43 40 36 39 41 39 36 34 36 37 36 36 35 34 33 33 34 35 36 34 31 30 30 30 30 29 28 29 30 30 30 30 30 29 28 28 28 26 25 25 24 24 24 23 23 22 22 21 20 20 21 21 22 22 21 20 19 18 19 20 20 21
67 65 62 60 57 55 55 56 56 56 56 53 49 47 45 42 38 37 38 41 43 45 43 41 43 41 36 38 41 42 39 35 36 38 38 37 36 34 33 34 36 36 35 34 33 32 32 32 31 29 29 30 32 32 31 32 32 31 30 30 30 28 27 26 25 25 25 24 23 23 23 21 21 21 22 23 23 23 23 22 21 20 21 21 22 23
66 65 62 59 57 56 56 57 56 55 56 54 49 46 45 42 39 38 39 40 40 42 41 39 42 43 38 37 40 42 42 38 37 38 39 38 36 35 35 35 36 36 36 36 35 34 34 33 31 30 30 31 32 32 32 33 34 33 33 33 32 30 28 26 25 26 26 25 24 24 23 23 22 23 24 24 25 24 24 23 22 22 22 23 24 25
66 64 61 58 57 57 56 57 56 55 54 53 47 44 44 43 41 40 40 40 39 39 38 37 41 43 39 38 39 41 43 41 38 38 39 39 37 36 36 36 36 37 37 37 37 36 35 34 33 33 31 32 32 33 33 35 36 36 35 35 34 32 29 27 26 27 26 25 25 25 24 24 23 24 25 25 26 25 25 24 24 24 24 25 26 26
67 66 62 59 58 57 57 56 55 53 52 51 45 41 43 44 44 43 42 41 40 39 36 34 38 40 36 36 39 40 43 44 41 39 38 38 38 37 36 36 37 37 37 38 38 38 37 35 35 34 33 33 34 35 37 38 38 37 37 36 35 33 31 29 28 28 27 26 26 26 26 26 25 25 26 27 27 26 26 26 26 26 26 27 28 28
69 66 63 61 59 58 58 57 54 51 50 48 42 40 43 45 45 45 44 44 42 40 40 37 39 40 34 32 37 40 42 44 43 41 39 37 38 37 36 37 37 38 38 39 39 39 39 37 36 36 35 35 36 38 39 39 38 39 39 39 37 35 33 31 30 28 27 26 27 27 27 27 26 26 27 28 28 27 27 27 27 28 28 28 29 30
69 66 64 62 61 59 57 54 50 46 47 46 42 41 43 44 45 46 46 45 44 43 43 42 43 45 37 28 31 37 41 44 44 44 43 40 38 37 37 38 38 39 39 40 40 40 40 38 37 37 38 37 37 38 39 39 39 40 41 41 40 37 35 33 32 30 28 27 28 29 28 28 28 28 29 29 29 29 29 29 29 29 29 30 31 32
67 64 62 60 58 55 52 49 44 41 44 45 42 42 43 44 44 45 46 45 44 45 44 43 44 49 45 33 29 32 37 41 43 45 46 44 41 40 40 39 40 40 40 40 41 42 42 41 39 39 39 39 37 38 40 40 40 41 42 42 41 38 37 36 35 33 31 29 29 30 29 29 29 30 30 30 30 30 30 30 30 30 31 31 32 33
65 62 59 56 53 52 50 46 43 42 45 45 43 43 44 45 44 45 46 44 45 47 46 44 43 48 48 39 34 32 32 34 39 43 46 47 46 44 42 41 41 41 41 41 42 43 44 43 41 40 40 39 38 39 41 41 41 42 43 43 41 40 39 38 37 35 33 32 31 31 31 31 31 31 31 31 31 32 32 31 31 32 32 32 34 35
62 61 61 57 53 54 53 50 49 50 50 49 46 45 45 45 45 46 47 46 47 48 48 45 44 47 47 37 33 34 33 32 35 38 42 45 47 46 44 43 42 42 43 44 44 45 45 44 42 41 40 39 39 40 40 41 42 43 43 44 43 42 41 39 38 37 36 34 33 33 33 33 33 33 33 32 33 33 33 32 33 33 33 33 34 36
59 59 62 61 58 57 55 53 54 55 55 54 51 49 48 48 48 48 48 49 49 49 50 45 41 44 46 38 33 33 34 34 34 34 38 42 45 46 45 44 43 44 44 45 46 46 45 45 44 42 41 40 40 40 41 42 43 44 44 45 44 43 42 42 40 39 38 36 35 35 35 35 35 35 34 34 35 34 34 34 34 34 34 34 35 38
63 62 63 63 62 60 58 56 56 58 58 57 55 51 50 49 49 48 48 48 47 48 47 42 38 42 44 42 37 33 33 36 35 32 34 39 44 45 45 45 44 44 45 46 47 46 46 45 46 45 43 41 41 41 42 42 44 45 45 45 45 44 44 43 42 41 40 38 36 36 36 36 37 36 36 36 36 36 36 35 35 35 36 36 37 39
66 66 65 65 64 62 61 60 58 58 56 54 52 48 47 46 45 45 45 44 44 45 44 41 41 44 43 40 39 34 32 35 36 34 33 35 41 45 45 46 45 44 45 46 47 47 46 46 47 47 45 43 42 42 43 44 44 45 45 45 45 45 45 45 43 42 41 39 38 38 38 38 38 38 38 38 38 38 37 37 37 37 38 39 39 40
63 64 62 62 63 62 61 61 59 58 57 55 52 49 48 47 46 46 46 44 43 45 46 46 46 46 42 40 41 37 31 31 35 36 34 33 37 43 45 45 45 44 45 46 47 47 47 47 48 49 48 46 45 45 45 45 45 45 45 46 46 45 46 45 45 44 43 42 41 40 40 40 40 40 40 40 40 40 39 39 39 39 40 40 41 42
62 62 61 61 62 62 61 59 57 57 57 57 55 53 51 48 45 44 44 43 43 46 49 48 48 48 44 42 43 40 32 30 33 36 35 33 33 38 43 44 44 44 45 46 47 48 49 49 49 50 50 49 48 47 47 47 46 46 46 47 47 46 46 45 45 45 44 44 43 43 42 42 43 42 42 43 42 42 41 41 41 41 41 42 43 43
62 61 61 63 63 63 63 61 60 59 57 57 56 52 48 46 44 43 44 44 44 48 51 50 49 48 46 44 41 38 34 30 31 34 36 35 33 34 37 40 43 45 45 46 47 49 51 51 51 50 51 51 50 50 49 49 48 47 47 48 48 47 47 46 46 46 46 45 45 44 44 44 44 45 45 45 45 44 43 43 43 43 43 43 44 45
60 60 60 62 63 64 64 63 62 61 60 58 56 52 49 49 48 46 46 48 47 49 51 51 50 48 47 45 39 37 37 33 31 32 35 38 38 36 35 37 40 44 46 47 48 50 50 51 52 52 52 52 52 52 51 51 50 49 48 48 48 48 48 48 48 48 47 46 46 45 45 46 46 47 47 47 47 46 45 45 45 45 45 46 46 47
60 62 62 60 59 61 63 63 63 61 59 58 56 54 53 53 52 49 48 49 48 48 49 50 50 49 46 42 38 38 39 36 32 32 34 37 39 40 39 37 38 42 45 46 48 50 50 51 52 53 53 53 53 53 52 52 51 50 50 49 49 49 50 50 50 49 49 48 47 47 47 47 47 48 48 48 48 48 47 47 47 47 47 48 48 49
61 64 64 62 60 60 61 61 60 59 57 56 56 56 54 52 51 49 47 45 45 46 47 50 52 50 46 42 39 39 40 37 34 32 33 35 37 40 41 41 40 42 45 45 45 47 50 51 52 53 54 54 54 54 53 53 52 52 51 51 51 51 51 51 51 51 51 50 49 49 48 48 48 49 49 49 50 49 49 48 48 49 50 50 50 50
62 63 64 64 63 61 60 59 57 56 54 54 53 52 49 46 44 44 43 43 44 45 47 50 54 54 50 46 44 43 42 40 37 34 33 34 36 38 40 41 41 41 44 46 46 46 48 50 52 52 53 54 55 55 54 54 53 53 53 53 52 52 52 52 52 52 52 51 51 50 49 49 50 50 50 50 51 50 50 50 50 51 52 52 52 52
61 62 63 63 62 60 59 56 54 54 53 53 53 50 48 47 46 46 47 46 45 46 47 50 55 55 50 46 46 44 42 41 40 38 36 36 36 37 38 40 40 40 43 46 48 48 47 48 50 52 53 54 55 56 55 55 54 54 54 54 54 54 53 53 53 53 52 52 51 50 50 51 51 51 51 51 51 51 51 52 52 52 53 53 53 53
61 63 63 63 61 59 57 54 52 52 54 54 53 52 52 52 49 49 50 48 46 47 47 49 53 55 49 43 42 43 43 43 43 42 40 38 37 37 38 40 40 39 40 43 46 48 48 47 48 50 52 54 55 56 57 57 56 56 55 55 55 55 55 55 54 54 53 52 52 51 51 52 52 52 52 52 52 53 53 53 53 53 53 53 54 54
60 63 63 63 63 61 60 58 56 55 56 56 55 55 54 52 51 51 50 49 49 47 46 48 52 53 48 42 41 44 44 43 45 46 45 43 40 39 39 40 41 41 41 41 42 44 46 48 48 49 51 53 56 57 57 57 57 57 56 56 56 56 56 56 55 55 54 54 53 53 53 53 53 53 53 53 53 53 53 53 53 53 53 54 54 54
60 62 62 63 64 62 59 57 57 58 60 59 58 56 54 52 51 49 46 47 47 44 43 45 46 48 47 44 45 48 45 42 44 46 47 46 45 43 42 41 42 43 44 44 43 42 44 46 48 49 50 53 56 58 58 58 57 57 56 56 56 55 55 55 55 55 55 55 54 54 54 54 54 54 53 53 53 53 53 53 53 53 54 54 54 55
60 61 60 59 59 56 53 51 52 53 54 53 50 47 46 45 44 42 43 44 41 41 45 45 43 45 47 47 49 49 43 39 42 45 46 46 46 46 46 46 45 45 45 46 47 46 45 45 48 50 51 53 56 59 59 59 58 56 56 56 55 55 55 55 55 55 55 55 54 54 54 54 54 54 54 54 53 53 53 54 54 54 54 55 55 55
58 57 55 55 54 53 52 50 49 48 46 44 42 39 37 38 38 41 43 41 39 44 47 42 39 43 45 45 48 48 42 37 39 43 45 46 46 47 48 48 48 47 46 47 48 50 50 49 49 50 51 53 55 58 60 60 59 57 56 56 56 56 56 56 55 55 54 54 54 54 54 54 54 54 54 54 54 54 54 54 55 55 54 54 54 55
55 51 48 49 51 52 52 51 49 47 45 43 42 40 38 39 42 44 42 38 40 45 42 36 38 43 43 42 45 48 46 41 39 40 43 45 47 47 48 48 48 48 48 47 47 48 50 51 50 50 52 53 54 57 60 61 60 59 58 57 56 56 56 56 55 55 54 53 53 53 53 53 53 53 54 54 54 54 54 54 54 54 54 54 55 55
56 53 50 49 49 48 49 49 48 47 46 45 44 43 44 45 44 42 38 35 40 43 38 36 41 42 40 40 42 45 47 45 42 40 40 43 46 47 47 47 48 48 49 49 48 47 48 49 50 49 50 52 53 55 58 60 61 60 58 57 56 56 56 56 56 55 55 54 53 53 53 53 53 53 54 54 54 54 54 54 54 55 55 55 56 56
56 55 54 52 50 49 49 48 48 47 45 44 44 45 46 44 41 38 37 38 42 41 35 36 42 40 36 36 40 43 45 47 46 44 41 43 46 47 47 47 47 47 48 49 49 48 48 48 49 49 50 51 52 53 55 58 60 60 59 58 57 56 56 56 56 56 56 55 55 55 54 54 54 53 53 53 53 54 54 55 55 56 56 57 57 57
55 55 54 53 53 52 51 50 50 48 46 46 46 43 41 39 38 37 37 39 41 39 36 40 42 37 33 35 38 43 47 49 48 45 44 45 46 48 49 49 48 47 47 48 49 50 49 50 50 50 50 51 52 52 53 55 57 58 58 57 57 56 56 56 56 56 56 56 56 56 55 55 55 54 54 54 54 55 55 56 56 57 57 58 58 57
55 55 53 54 55 54 53 53 52 50 51 49 42 36 36 38 38 38 38 39 39 39 40 43 41 36 36 38 40 43 48 49 48 46 46 47 47 48 48 49 50 49 48 49 51 52 53 53 53 52 51 51 52 52 52 53 53 55 56 56 56 56 55 55 56 56 56 55 55 55 55 55 55 54 54 55 55 56 56 57 58 58 57 57 57 56
55 54 53 54 54 54 54 53 53 54 53 44 34 34 39 40 38 38 38 37 38 39 41 43 41 39 40 40 40 43 45 47 49 49 48 48 48 48 47 47 48 48 48 48 50 52 55 56 55 54 53 53 52 53 53 52 52 53 54 54 54 54 54 55 55 55 56 55 55 55 55 55 55 56 56 57 57 58 58 58 58 57 56 56 56 56
51 50 52 52 51 52 52 51 53 54 48 38 34 38 39 37 36 37 37 37 40 42 43 43 40 38 37 38 41 45 46 47 50 51 49 49 49 48 46 46 46 45 45 45 46 49 53 55 56 57 56 54 53 53 53 53 53 53 53 53 53 53 53 54 54 55 55 55 56 56 56 57 58 58 59 59 59 59 58 58 57 56 56 57 57 57
48 46 47 48 49 49 49 48 49 48 43 38 38 38 36 36 37 40 40 40 41 43 43 41 38 36 37 39 41 44 46 48 49 48 48 48 47 46 44 43 44 44 44 43 44 46 49 51 53 55 57 57 55 53 53 53 54 54 54 54 54 53 53 53 54 54 55 56 56 57 57 58 58 59 59 59 59 58 57 57 57 57 57 57 58 58
49 47 46 47 47 46 47 46 45 44 43 41 39 37 37 39 40 42 43 41 40 42 42 40 37 36 38 39 40 43 46 49 48 45 45 45 43 42 43 43 44 44 44 43 44 45 46 48 50 51 55 58 57 54 52 52 52 53 55 56 56 56 56 55 55 56 56 57 57 58 58 58 58 58 58 57 57 56 56 56 57 57 57 57 58 58
49 48 47 47 47 46 46 46 46 46 43 40 39 39 41 42 43 45 45 41 38 40 40 37 34 34 36 39 41 43 46 48 45 41 42 43 42 42 43 43 44 45 44 43 44 45 46 47 48 49 52 55 57 56 54 52 51 51 52 54 56 57 57 57 56 57 57 57 57 57 57 57 56 56 56 56 56 56 56 57 57 57 58 58 59 60
50 49 47 47 48 47 46 47 48 45 39 37 39 41 43 44 43 44 44 39 36 37 37 35 35 35 36 38 39 40 41 41 39 39 42 43 43 45 45 45 45 45 43 43 43 43 45 45 47 48 50 53 56 56 55 54 52 51 51 52 53 54 56 56 57 57 57 57 57 57 57 56 56 56 56 56 57 57 58 58 58 59 59 60 59 58
54 53 52 52 52 51 50 50 48 42 39 39 41 41 43 44 43 44 43 40 39 38 37 37 37 37 37 39 41 41 40 38 38 43 47 47 47 48 47 47 48 46 44 41 39 40 42 43 44 46 49 52 55 55 55 54 53 52 52 52 53 54 55 56 57 58 58 59 59 58 58 58 58 58 58 58 59 59 59 59 60 59 59 58 57 56
56 56 56 55 55 55 54 51 47 42 41 43 42 42 45 47 47 47 44 43 42 42 40 40 40 40 41 43 44 44 44 44 45 48 50 50 51 51 50 49 50 48 45 40 37 37 38 39 41 44 46 50 52 53 53 53 53 53 53 53 54 55 56 56 57 57 58 58 58 59 59 59 59 59 60 60 60 60 59 59 58 57 56 55 55 55
56 57 57 56 55 55 53 53 50 44 40 41 42 44 48 50 48 44 41 41 42 41 41 42 42 41 43 45 45 46 47 47 47 49 50 50 51 51 51 50 49 47 44 40 36 35 36 36 38 39 41 44 47 49 51 51 52 53 54 54 55 56 56 56 57 57 57 57 58 58 59 59 59 59 59 58 58 57 56 56 55 55 54 54 54 54
51 54 56 55 54 53 53 55 50 39 33 37 42 41 40 41 39 36 36 39 39 38 39 39 39 39 41 41 42 43 44 43 44 45 46 47 47 48 48 47 46 44 41 39 36 35 35 36 37 37 38 40 43 46 47 49 50 51 52 53 54 54 55 55 56 56 57 57 57 57 57 56 56 55 55 55 54 54 53 53 53 53 53 53 54 54
46 50 52 53 53 53 52 48 39 28 24 30 35 33 31 32 32 32 35 37 36 35 36 36 36 36 37 38 39 39 39 40 40 41 42 43 44 44 43 42 41 40 38 37 36 35 34 35 36 37 37 38 40 41 43 44 45 46 47 48 49 50 50 51 52 52 52 53 53 53 52 52 52 52 52 51 51 51 51 51 51 51 51 52 52 52
47 49 50 51 51 50 48 42 34 27 24 26 28 29 30 31 33 34 34 34 33 33 32 33 35 37 37 38 38 38 38 39 39 39 40 41 41 41 41 39 37 36 35 35 34 34 34 34 35 35 36 36 37 38 39 40 41 42 43 44 44 45 46 47 47 48 48 48 49 49 49 49 48 48 48 48 48 48 48 49 49 49 50 51 51 52
48 49 50 49 49 47 46 42 39 36 33 31 31 31 31 33 35 36 35 34 32 31 31 33 36 38 39 39 39 39 40 39 39 39 40 40 40 40 40 39 37 35 34 34 34 34 34 34 35 35 36 36 36 37 37 38 39 40 41 42 42 43 44 44 45 45 45 45 46 46 46 46 46 46 47 47 47 48 48 49 49 50 51 51 52 53
48 49 49 50 50 47 44 43 42 41 39 37 37 37 36 37 38 37 37 36 34 33 34 37 39 40 41 41 41 41 42 41 41 40 40 40 41 40 40 40 39 37 35 34 34 35 35 35 36 36 37 37 37 37 38 38 39 39 40 41 41 42 42 42 43 43 44 44 44 45 45 46 46 47 47 48 48 49 49 50 51 52 52 53 55 56
49 50 50 50 50 47 44 42 41 40 40 40 41 41 39 38 37 37 38 38 37 38 40 41 42 43 43 43 42 42 42 42 42 41 41 41 41 40 41 41 41 40 38 37 36 37 37 37 38 38 38 38 38 38 39 39 39 39 40 40 41 41 42 42 43 43 44 44 45 45 46 46 47 48 48 49 50 50 51 52 53 53 55 56 57 58
49 51 50 49 48 46 44 42 41 42 42 41 41 39 37 35 35 36 38 38 38 41 43 43 44 44 44 44 44 42 42 42 42 42 42 41 40 40 41 42 43 43 41 40 39 39 39 39 39 39 40 39 39 40 40 40 40 40 40 41 41 42 42 43 44 44 45 45 46 46 47 48 48 49 50 50 51 52 52 53 54 55 56 57 58 59
51 51 50 50 49 45 42 41 42 42 41 38 36 35 34 34 35 36 37 37 39 42 45 45 45 45 45 45 44 43 42 42 42 42 42 41 40 41 42 43 45 45 44 43 42 41 41 41 41 41 41 41 41 41 41 42 42 42 42 43 43 44 44 44 45 45 46 46 47 47 48 49 50 51 51 52 52 53 53 54 55 55 56 57 58 58
49 49 49 49 46 41 39 40 41 40 39 39 37 37 39 41 42 42 41 42 43 46 47 46 46 45 46 45 45 44 44 43 43 43 43 42 42 42 43 44 45 46 46 46 45 43 43 42 42 42 43 43 43 43 44 44 44 44 45 45 45 45 46 46 46 47 47 48 48 49 50 51 52 52 52 52 52 53 53 54 54 55 56 56 57 58
Wind_Direction
222 222 223 224 226 227 227 227 229 229 229 229 229 231 232 230 228 228 232 234 233 233 232 233 232 223 224 235 236 230 227 226 226 227 229 230 230 231 232 234 235 235 237 240 241 240 240 240 239 237 234 234 232 230 227 225 224 224 226 229 231 234 236 240 243 245 247 249 251 254 255 255 255 254 254 255 256 258 259 261 263 267 270 272 273 275
223 223 223 224 226 228 228 229 230 231 230 229 230 231 233 234 231 229 233 236 237 236 234 234 233 226 225 234 238 237 233 230 229 228 229 230 230 231 231 233 235 235 238 241 241 240 241 241 241 238 235 233 232 230 227 226 226 226 228 232 235 237 239 242 245 247 249 250 252 254 255 257 258 257 255 256 257 259 261 263 266 270 274 276 277 279
222 222 223 224 225 226 227 228 229 230 230 229 229 231 233 235 235 233 234 237 240 240 237 237 237 232 228 232 238 243 241 235 232 230 229 230 231 231 231 233 235 237 239 242 242 242 242 242 242 240 237 234 232 230 228 228 229 229 230 233 236 238 240 243 246 249 251 252 254 256 258 260 261 260 259 259 260 263 265 266 269 272 274 276 278 279
222 222 223 223 224 225 227 228 228 229 230 228 227 230 232 234 236 236 236 238 240 242 240 240 240 237 231 231 236 244 246 241 237 234 231 231 232 233 232 233 235 237 240 242 241 241 242 243 244 243 240 236 233 232 230 230 231 231 232 234 236 237 238 242 246 250 253 254 256 259 260 262 262 261 261 263 264 266 269 271 273 274 275 276 277 278
224 225 226 224 224 225 227 229 229 229 231 229 227 230 234 235 236 236 238 239 240 242 242 241 241 237 233 232 234 239 243 242 240 237 234 233 233 233 233 233 235 237 239 242 241 241 242 243 245 244 242 240 237 235 233 232 232 232 233 234 236 237 239 243 247 251 254 257 258 259 260 261 262 262 262 264 266 269 272 274 275 275 276 276 277 278
225 226 228 228 227 228 229 230 230 231 232 232 229 231 235 236 236 237 239 240 239 241 242 242 242 238 235 236 236 234 238 241 241 239 235 234 234 234 235 235 236 237 238 241 242 243 243 243 244 244 243 243 241 238 236 234 233 233 234 236 238 241 242 245 248 251 254 257 259 259 260 260 260 261 263 265 268 271 273 274 275 276 276 276 277 279
223 224 226 228 228 229 231 232 233 234 234 234 231 230 233 235 236 237 239 239 238 239 239 241 244 242 235 236 239 235 235 239 241 241 237 236 237 235 236 237 238 239 239 240 242 243 243 243 244 245 243 242 240 239 237 236 235 235 236 238 239 241 243 245 248 250 253 255 257 259 260 261 261 262 264 266 268 271 273 275 276 276 276 278 279 280
222 223 225 227 228 229 231 232 235 237 238 237 235 232 232 234 236 237 237 239 239 238 237 238 243 244 236 232 239 238 235 237 240 242 240 239 240 239 238 238 239 240 240 241 242 243 244 243 244 245 245 243 241 241 241 239 238 238 238 239 240 242 244 246 248 251 254 255 256 258 259 261 263 264 265 267 269 272 274 276 276 277 278 279 280 281
221 223 225 226 228 229 230 232 235 239 239 238 237 234 233 234 236 238 238 239 240 240 239 238 242 246 238 227 237 240 237 237 239 242 242 240 242 244 242 240 239 241 241 241 242 243 244 244 244 245 246 245 243 244 245 243 241 240 241 242 243 244 245 248 250 252 254 255 255 257 259 261 262 263 265 267 270 272 274 275 276 277 278 279 280 281
222 223 226 227 228 230 232 235 236 238 239 237 235 234 233 233 235 238 240 241 242 243 242 241 243 247 242 229 233 243 243 241 240 240 242 242 242 245 246 243 241 240 241 243 243 244 244 243 243 244 246 247 246 246 247 245 243 242 242 244 245 246 248 249 252 253 254 255 255 256 258 260 261 262 264 266 269 272 273 274 275 277 278 279 280 281
224 225 226 227 228 229 232 234 233 234 237 237 236 234 234 234 235 237 239 240 242 243 244 243 243 249 248 234 230 241 248 250 248 242 242 244 244 245 246 246 244 242 242 243 244 245 246 245 244 244 246 247 247 247 247 246 244 243 243 243 244 246 248 250 253 255 256 258 258 258 259 260 261 262 264 266 268 270 272 274 275 277 278 280 281 281
223 225 226 226 226 227 228 229 229 232 235 236 236 235 235 235 235 237 239 240 242 244 245 244 243 248 251 242 235 241 246 252 256 251 245 245 246 246 246 246 246 245 242 242 244 245 247 248 247 245 245 247 247 247 247 247 245 244 243 242 243 245 247 250 252 254 256 258 259 260 260 261 262 264 265 267 268 270 272 274 275 277 278 279 281 281
220 223 225 225 225 227 228 229 230 232 234 237 237 235 234 235 235 237 239 241 243 246 247 247 246 249 253 253 248 245 244 246 253 256 249 245 246 246 245 245 245 245 244 242 243 245 247 249 249 248 246 245 246 247 247 246 245 245 244 243 243 244 246 248 251 253 256 257 258 259 260 261 262 263 265 266 268 270 272 273 275 276 278 279 280 280
217 220 221 223 224 226 229 231 233 235 237 239 239 238 237 237 238 239 241 244 246 249 252 253 253 253 254 258 256 251 247 245 248 255 255 249 247 246 245 244 244 244 244 243 244 245 246 249 250 250 248 246 246 246 246 246 246 245 245 245 245 245 246 248 251 253 256 258 259 259 259 259 260 262 263 265 267 269 271 273 275 276 278 279 279 280
218 220 221 222 223 225 228 231 233 235 237 240 242 242 242 242 243 244 245 247 249 252 254 254 253 251 252 256 259 255 251 249 246 250 256 254 249 247 247 246 245 243 243 243 244 245 246 247 249 250 250 248 247 246 246 246 246 246 247 246 246 246 247 248 250 253 255 258 259 259 259 259 260 261 263 265 267 269 271 273 274 276 277 278 279 281
221 223 224 225 225 225 227 229 230 231 233 235 237 238 239 240 241 243 244 244 247 249 251 251 252 253 254 256 259 257 252 251 249 248 253 257 251 247 248 247 246 244 242 241 242 245 246 246 248 249 250 249 248 246 246 245 245 246 247 247 247 248 248 249 251 253 255 257 259 260 260 261 261 262 263 265 267 268 270 272 274 275 276 278 279 280
222 223 224 226 227 228 228 229 230 231 233 235 236 236 238 239 240 242 245 245 247 249 251 253 254 256 257 256 258 262 259 253 252 248 249 256 255 250 249 248 248 246 243 241 240 242 244 244 245 247 249 249 249 247 247 246 246 246 246 247 248 249 250 251 252 254 255 257 258 260 261 261 262 263 263 265 266 268 269 271 273 275 276 277 278 279
224 224 224 224 225 226 228 228 228 229 231 234 236 239 241 242 242 243 246 247 248 250 251 252 254 256 258 257 260 266 266 259 254 250 247 250 253 253 250 249 249 248 245 243 241 241 242 243 243 245 247 249 249 249 249 248 247 247 247 247 248 249 250 251 253 254 255 257 258 260 260 261 262 262 263 264 266 267 269 271 272 274 275 276 277 278
222 223 224 225 224 224 225 227 228 229 230 232 235 236 238 240 241 241 244 246 248 251 252 253 255 256 258 260 263 268 269 266 260 256 252 249 251 253 253 251 250 250 249 246 244 243 242 242 243 243 245 247 249 250 250 250 250 249 248 248 248 249 250 251 252 253 255 257 258 259 260 260 261 262 263 264 266 267 269 270 272 273 275 276 277 278
221 220 222 223 225 225 225 226 228 230 232 234 235 236 237 240 241 241 243 246 249 252 254 255 256 256 257 263 269 270 271 272 269 264 260 256 254 254 257 256 253 251 251 249 248 247 244 242 242 243 244 246 248 249 250 251 251 251 250 250 249 249 250 251 252 253 254 256 257 258 259 260 261 262 263 264 266 267 269 270 272 274 275 275 276 277
220 221 221 222 224 225 227 228 230 232 233 235 236 238 240 242 245 247 248 250 253 255 257 258 258 255 257 263 267 268 270 272 271 268 264 262 259 257 257 258 257 254 252 251 251 251 249 245 243 242 244 245 247 249 250 251 251 252 251 251 250 250 251 251 252 254 255 256 257 259 260 261 262 262 263 264 266 267 268 270 272 273 273 274 275 276
218 220 222 224 225 226 229 230 230 232 233 234 236 238 241 244 247 249 250 251 253 256 257 259 257 253 255 261 264 266 269 271 271 270 266 264 262 260 259 259 259 257 254 253 252 252 252 250 246 243 243 245 247 248 250 251 251 251 251 252 252 252 252 252 253 254 255 256 257 258 259 260 261 262 263 264 265 267 268 269 270 271 272 273 274 275
217 218 222 225 227 227 228 228 229 231 232 233 234 235 237 239 241 244 246 247 249 252 254 258 257 252 253 263 268 269 271 272 272 271 268 266 263 262 262 260 260 260 258 258 256 254 254 254 251 247 244 245 246 248 249 251 251 251 250 251 251 252 252 253 254 254 255 256 256 257 258 259 260 261 262 263 265 266 267 267 268 269 271 272 274 274
217 217 219 222 226 227 227 227 227 228 230 231 233 234 236 238 240 243 246 247 248 250 253 257 257 253 254 264 270 271 272 273 273 273 271 268 265 263 262 260 260 261 262 263 262 260 257 255 254 251 247 245 246 247 248 250 251 251 250 250 250 251 252 253 254 255 256 257 257 258 258 259 260 261 262 263 264 265 266 267 268 269 271 272 273 274
218 219 219 219 222 223 222 223 224 226 229 231 233 234 236 238 240 242 245 247 248 249 250 254 256 256 259 267 270 270 271 273 274 274 273 273 271 268 265 262 260 259 260 262 264 264 261 257 254 252 250 247 246 247 248 248 249 250 251 251 251 251 252 253 255 256 256 257 258 258 259 260 261 262 263 264 264 265 266 268 269 270 271 272 273 274
221 222 223 222 224 225 226 228 231 231 232 232 233 234 236 237 239 241 244 247 248 250 252 256 260 262 265 269 269 268 269 269 269 271 272 273 273 271 268 265 263 260 258 258 260 263 263 260 255 252 250 247 246 246 247 247 248 249 250 251 252 253 254 254 255 256 257 258 258 259 260 261 262 263 264 265 266 267 268 269 270 270 271 272 273 274
224 226 227 228 230 233 236 238 238 237 236 236 237 240 241 242 243 245 246 249 252 255 256 260 265 265 265 266 266 266 267 266 267 269 271 272 272 272 271 269 268 265 262 259 258 259 262 263 259 254 250 247 245 245 246 248 249 250 251 252 253 254 254 255 255 256 257 258 258 259 260 262 263 264 265 266 266 267 268 269 269 270 271 272 273 274
224 226 228 229 230 232 234 236 236 237 239 239 241 242 242 244 244 244 246 249 252 254 256 261 265 262 261 262 263 265 266 265 264 268 270 270 270 270 270 271 270 269 267 264 261 259 259 261 262 259 254 249 246 245 245 247 249 250 251 252 253 253 254 255 256 256 257 258 259 260 261 262 263 264 265 266 266 267 267 268 269 270 271 272 273 274
222 224 226 228 228 228 230 231 233 235 236 236 235 235 235 236 236 239 244 249 251 253 257 260 260 258 257 258 261 265 267 266 263 264 266 268 270 270 270 271 271 271 270 268 264 260 258 258 260 262 259 254 251 247 245 246 248 249 251 252 253 253 254 255 256 257 258 259 260 261 261 262 263 264 265 265 266 267 267 268 269 270 271 272 273 274
221 222 224 227 228 229 230 230 232 233 234 234 234 233 233 234 236 240 245 247 249 253 255 255 256 257 256 257 260 263 266 268 265 263 262 264 266 269 270 271 271 270 269 267 265 262 258 256 256 258 259 257 254 251 248 247 247 248 250 251 252 253 254 255 256 257 258 259 260 260 261 261 262 263 264 264 265 266 267 268 269 270 271 271 272 273
221 223 224 226 227 228 228 229 232 233 235 235 235 235 236 238 241 243 245 245 248 252 255 256 256 256 256 257 258 260 262 264 265 264 261 258 258 260 263 265 265 265 264 264 263 261 259 257 255 255 256 256 255 254 252 250 248 248 250 251 252 253 254 255 255 256 257 258 258 259 260 260 261 261 262 263 264 265 266 267 267 268 269 270 271 272
221 222 223 225 226 227 227 229 231 233 235 234 233 235 239 242 244 246 247 249 252 255 255 255 256 258 257 255 255 256 257 258 260 261 260 257 255 254 255 257 260 261 261 260 260 259 257 256 255 254 254 254 254 254 254 253 252 251 251 251 252 253 254 255 255 256 256 257 257 258 259 259 260 260 261 262 263 264 264 265 266 267 268 269 270 271
222 223 223 223 225 226 227 228 230 232 233 233 234 239 243 244 245 248 249 252 255 257 256 255 257 259 256 252 251 254 256 257 258 257 258 258 258 256 255 256 258 260 261 259 259 258 257 256 256 255 253 252 252 252 252 253 254 253 253 252 252 253 253 253 254 255 255 256 256 257 257 258 259 260 260 261 262 263 264 265 266 267 268 269 270 271
224 224 223 222 223 225 226 228 230 232 233 233 236 240 243 244 247 250 251 253 257 258 257 256 256 256 256 254 253 253 255 257 259 257 256 258 260 261 260 260 261 263 264 262 261 260 259 259 259 256 253 250 249 250 250 251 252 253 253 253 253 253 253 253 253 253 254 254 255 256 256 257 258 259 260 261 262 263 264 265 266 267 268 269 270 271
223 225 225 223 223 225 227 228 231 233 232 232 235 238 242 246 249 250 250 250 252 254 254 255 256 256 256 253 251 251 252 253 256 259 260 261 261 263 265 266 267 267 267 267 265 264 263 264 263 260 256 251 248 248 248 248 249 250 252 253 253 253 253 253 253 253 254 254 255 255 256 258 259 260 261 262 263 263 264 266 267 268 269 270 271 272
220 225 228 227 225 225 228 231 234 235 233 233 235 238 242 245 245 246 247 246 248 251 253 254 253 251 250 249 250 251 251 252 254 257 263 266 267 267 267 267 268 268 268 268 268 268 268 267 266 264 261 257 251 247 246 246 246 247 249 250 252 252 253 253 253 253 254 254 255 256 257 258 259 260 261 262 263 264 265 266 268 269 270 271 272 274
216 218 221 224 225 225 229 233 236 237 236 235 235 236 239 242 244 247 247 246 247 249 251 252 252 251 250 251 251 250 250 252 252 255 263 269 270 270 269 267 266 266 267 267 267 268 268 268 267 265 263 261 256 250 247 246 246 246 247 248 250 251 252 253 253 253 254 255 255 256 257 258 259 260 261 262 264 265 266 267 269 270 271 273 275 277
213 215 217 220 221 222 225 228 230 231 231 229 229 232 235 237 240 243 244 245 246 248 250 251 251 249 246 247 249 251 252 253 253 257 266 270 269 269 270 269 269 269 268 267 266 266 266 267 268 267 264 262 259 255 251 248 247 247 247 248 250 251 252 253 253 254 255 255 256 257 258 259 260 261 263 264 265 267 268 269 271 272 274 276 277 278
210 213 215 217 220 221 223 225 226 226 225 223 226 230 233 234 235 236 241 248 248 245 247 248 245 242 243 247 253 257 257 256 255 262 270 272 270 271 272 273 273 273 272 271 269 268 268 268 268 267 264 261 258 256 252 250 248 248 249 250 252 252 253 254 254 255 256 257 258 259 260 261 262 264 265 266 267 269 270 272 273 275 276 277 278 278
208 210 212 215 219 220 222 224 224 224 224 225 226 228 231 234 231 231 240 250 248 242 244 249 249 249 252 257 261 263 264 262 262 266 272 274 274 275 276 276 277 277 277 275 273 272 271 270 268 265 262 259 257 255 252 251 250 250 251 252 253 254 255 255 255 256 258 259 260 261 262 263 264 265 266 268 269 270 272 273 275 275 276 277 278 278
210 211 213 216 219 219 221 223 223 223 225 227 226 226 228 230 231 235 243 250 248 247 253 259 261 262 263 264 265 266 267 266 265 267 271 273 274 275 276 276 276 277 277 276 274 272 271 270 268 266 264 262 261 259 256 253 252 251 252 252 254 255 256 256 257 258 259 260 262 263 264 265 265 266 268 269 270 272 273 274 275 275 276 277 278 279
214 215 215 216 218 219 221 223 225 227 230 231 230 229 229 232 237 244 250 251 253 257 260 262 264 265 264 264 265 265 266 266 266 266 268 269 271 272 273 273 274 275 276 276 274 271 269 267 266 265 264 263 263 261 259 257 255 254 254 254 255 256 257 258 259 260 261 262 263 265 266 267 268 269 270 271 272 273 273 274 275 276 277 278 278 279
222 223 222 221 221 222 223 225 228 232 234 235 236 238 241 245 250 254 254 255 258 259 257 258 260 260 260 261 262 262 263 264 264 264 265 266 268 269 271 272 273 274 275 276 274 271 268 266 264 262 260 259 258 258 258 257 256 256 256 256 257 258 259 260 261 262 263 264 265 266 267 268 269 270 271 271 272 273 274 275 276 277 277 278 279 279
224 226 227 227 228 229 230 231 234 240 241 240 242 248 253 255 254 253 251 252 253 254 255 257 258 258 259 259 259 260 261 261 261 262 262 263 264 267 269 271 271 272 273 273 271 269 267 264 263 261 259 257 256 256 256 256 256 256 257 257 258 259 260 261 262 263 264 265 266 267 268 269 270 270 271 272 273 274 275 275 276 277 278 278 279 280
220 222 225 227 230 233 236 238 243 247 246 244 246 249 251 251 249 249 249 250 252 255 256 257 256 257 257 257 258 260 260 260 260 261 262 263 264 266 268 270 270 271 271 270 269 266 263 261 260 259 258 257 256 255 256 256 256 257 257 258 258 259 260 261 262 264 265 266 267 268 269 270 270 271 272 272 273 274 274 275 276 276 277 278 279 280
220 221 223 225 228 231 233 235 238 239 237 239 244 247 247 245 244 245 246 247 249 252 253 252 253 254 254 255 256 258 259 261 261 262 263 264 265 266 268 269 268 267 267 266 265 263 261 259 258 257 257 257 256 256 256 257 257 258 258 258 259 260 261 262 263 264 265 266 267 268 269 270 270 271 272 273 273 274 275 276 277 278 279 280 280 281
221 222 224 225 226 227 228 228 231 232 233 236 241 243 241 239 241 243 246 248 250 253 255 255 254 255 255 256 256 257 259 261 262 263 264 264 265 267 268 268 267 265 264 263 261 260 259 258 257 256 256 256 257 256 256 256 256 257 257 258 259 259 260 261 262 263 265 266 267 268 270 271 272 273 274 275 276 277 278 279 280 280 281 281 281 281
221 224 225 225 225 226 226 227 230 233 234 236 238 240 241 242 244 246 249 252 253 255 256 256 257 258 258 258 258 259 260 261 262 263 263 264 266 267 268 268 268 266 264 262 260 259 258 257 257 256 256 256 257 257 257 257 257 258 258 259 260 261 262 264 265 266 268 269 271 272 273 274 275 276 276 277 278 279 280 280 281 281 281 281 281 281
226 226 227 228 229 228 227 227 229 231 233 236 239 242 245 247 249 250 251 252 252 252 253 254 256 257 257 258 259 259 260 261 262 262 262 263 265 266 267 267 267 266 264 262 260 259 258 258 257 257 258 258 259 259 260 260 261 261 262 263 264 265 266 268 269 270 271 272 273 274 275 275 276 276 277 278 278 279 280 280 280 280 280 280 281 281
229 228 227 228 228 226 225 228 231 235 239 242 246 248 250 249 248 247 246 245 245 247 248 250 251 253 254 256 258 258 259 260 261 261 262 263 264 265 265 265 265 265 264 262 261 259 259 258 259 259 260 261 261 262 263 263 264 265 265 266 267 268 268 270 271 271 272 273 274 275 275 276 276 277 277 278 278 279 279 279 280 280 280 280 280 280
228 228 228 228 228 228 231 236 240 243 246 247 247 246 245 244 242 240 240 240 241 243 246 248 250 253 255 257 258 259 260 260 261 261 261 261 261 263 263 264 263 263 262 262 261 261 260 260 260 260 260 261 262 263 264 265 266 267 268 269 270 271 272 273 274 274 275 275 276 276 276 276 277 277 277 278 278 278 279 279 279 280 280 280 280 281
Height
5778 5781 5785 5789 5794 5798 5802 5804 5806 5808 5811 5812 5814 5816 5818 5821 5824 5827 5828 5829 5831 5833 5835 5838 5843 5848 5850 5848 5848 5850 5850 5851 5853 5854 5855 5857 5858 5859 5861 5862 5864 5866 5865 5865 5868 5871 5872 5873 5874 5875 5877 5877 5878 5880 5880 5881 5882 5882 5883 5884 5884 5885 5886 5887 5887 5887 5887 5887 5887 5888 5888 5888 5889 5889 5889 5888 5888 5887 5887 5887 5886 5886 5885 5884 5884 5883
5772 5776 5783 5788 5792 5796 5799 5801 5802 5804 5806 5809 5811 5814 5816 5818 5821 5825 5826 5827 5829 5831 5833 5836 5838 5845 5848 5846 5845 5847 5848 5850 5851 5852 5853 5854 5855 5856 5858 5860 5862 5863 5862 5862 5867 5869 5870 5871 5872 5873 5874 5876 5876 5877 5878 5879 5879 5880 5881 5881 5881 5882 5884 5884 5885 5885 5886 5886 5886 5886 5886 5887 5887 5887 5887 5886 5886 5885 5885 5885 5884 5884 5883 5882 5882 5881
5766 5773 5780 5785 5788 5791 5794 5796 5797 5799 5802 5805 5808 5811 5813 5815 5818 5822 5824 5825 5826 5828 5831 5833 5834 5840 5845 5844 5843 5844 5847 5849 5849 5849 5850 5851 5852 5854 5857 5858 5859 5859 5859 5861 5865 5866 5867 5868 5869 5871 5872 5873 5874 5874 5876 5876 5877 5878 5878 5879 5879 5880 5881 5881 5882 5883 5883 5884 5884 5884 5884 5885 5885 5885 5885 5884 5884 5883 5883 5883 5882 5882 5881 5880 5879 5878
5764 5771 5775 5779 5783 5786 5788 5790 5792 5795 5797 5801 5805 5808 5810 5813 5816 5819 5820 5822 5824 5824 5827 5829 5830 5834 5840 5841 5841 5842 5844 5847 5848 5847 5848 5849 5850 5852 5854 5855 5856 5857 5858 5860 5862 5863 5864 5865 5867 5869 5870 5870 5871 5872 5873 5874 5875 5876 5876 5875 5876 5877 5878 5878 5880 5880 5881 5881 5882 5882 5882 5883 5883 5883 5882 5882 5882 5881 5881 5880 5880 5880 5879 5878 5877 5876
5764 5768 5771 5775 5779 5781 5783 5785 5788 5792 5794 5797 5803 5807 5809 5812 5814 5815 5816 5818 5820 5821 5823 5825 5825 5828 5835 5837 5837 5838 5840 5843 5845 5845 5846 5846 5848 5850 5851 5852 5854 5856 5857 5857 5859 5860 5861 5863 5865 5866 5867 5867 5869 5870 5871 5871 5872 5872 5872 5872 5873 5874 5876 5876 5877 5878 5878 5879 5880 5880 5880 5880 5880 5880 5880 5880 5879 5879 5879 5878 5878 5877 5876 5875 5874 5873
5758 5763 5768 5772 5774 5777 5779 5781 5785 5789 5791 5794 5801 5806 5806 5808 5810 5812 5813 5814 5817 5818 5820 5822 5821 5824 5830 5832 5834 5835 5835 5838 5840 5841 5843 5844 5845 5847 5848 5850 5852 5853 5854 5855 5856 5857 5858 5860 5861 5862 5864 5865 5866 5867 5868 5868 5868 5869 5870 5870 5871 5872 5874 5874 5875 5875 5876 5877 5877 5877 5878 5878 5878 5877 5877 5877 5877 5876 5876 5876 5875 5875 5874 5873 5872 5871
5752 5757 5762 5766 5770 5773 5775 5778 5782 5785 5788 5792 5799 5802 5802 5804 5806 5808 5810 5811 5813 5815 5817 5819 5817 5819 5826 5829 5830 5831 5832 5834 5837 5838 5841 5842 5842 5844 5846 5848 5849 5850 5852 5853 5854 5854 5856 5857 5858 5860 5861 5862 5863 5863 5863 5863 5865 5866 5867 5868 5869 5870 5871 5872 5872 5872 5873 5874 5874 5875 5875 5874 5875 5875 5874 5874 5874 5873 5873 5873 5872 5872 5871 5869 5868 5867
5747 5753 5757 5761 5765 5768 5771 5775 5779 5782 5785 5790 5795 5797 5798 5800 5801 5804 5806 5806 5809 5811 5813 5815 5815 5814 5821 5826 5825 5827 5829 5831 5833 5835 5837 5840 5840 5842 5844 5845 5846 5848 5849 5850 5850 5851 5852 5854 5856 5857 5858 5858 5859 5859 5859 5861 5863 5864 5864 5865 5866 5867 5868 5869 5869 5870 5871 5871 5872 5872 5872 5871 5872 5871 5870 5870 5870 5870 5870 5870 5869 5868 5867 5866 5865 5864
5746 5750 5753 5758 5761 5764 5769 5773 5777 5780 5782 5787 5790 5791 5794 5796 5797 5799 5801 5803 5805 5807 5808 5812 5812 5809 5815 5824 5823 5823 5826 5827 5830 5832 5833 5836 5838 5839 5841 5842 5843 5844 5845 5846 5847 5848 5849 5851 5853 5853 5854 5855 5856 5856 5857 5859 5860 5861 5861 5862 5863 5864 5865 5866 5866 5867 5868 5868 5868 5868 5868 5868 5868 5867 5867 5866 5867 5867 5867 5866 5866 5865 5864 5863 5861 5860
5742 5746 5751 5755 5758 5764 5769 5771 5774 5776 5778 5782 5785 5787 5790 5792 5794 5796 5797 5800 5802 5802 5805 5809 5809 5805 5809 5820 5823 5821 5824 5826 5828 5829 5828 5831 5834 5835 5836 5838 5839 5841 5842 5843 5844 5844 5845 5846 5849 5850 5850 5852 5854 5854 5854 5855 5857 5857 5858 5858 5860 5861 5861 5862 5862 5863 5864 5864 5864 5865 5865 5865 5864 5864 5863 5863 5863 5863 5863 5862 5862 5861 5860 5859 5858 5857
5739 5744 5748 5751 5756 5761 5765 5767 5769 5771 5773 5777 5780 5783 5787 5788 5791 5792 5793 5796 5796 5797 5800 5804 5806 5803 5803 5814 5822 5821 5822 5824 5824 5825 5825 5826 5829 5831 5832 5834 5835 5837 5839 5840 5840 5841 5841 5842 5845 5846 5848 5849 5850 5850 5850 5852 5853 5854 5854 5855 5856 5857 5857 5857 5858 5859 5860 5860 5860 5861 5861 5861 5861 5860 5859 5859 5859 5859 5858 5858 5858 5857 5856 5855 5854 5852
5734 5738 5742 5747 5753 5756 5758 5761 5763 5766 5768 5771 5775 5779 5782 5784 5786 5787 5788 5791 5791 5793 5796 5799 5803 5802 5799 5809 5820 5821 5821 5821 5819 5820 5822 5823 5824 5826 5828 5830 5831 5833 5835 5835 5836 5837 5838 5839 5841 5843 5844 5846 5846 5847 5847 5848 5849 5849 5850 5851 5852 5853 5853 5854 5854 5854 5855 5856 5856 5857 5857 5857 5856 5856 5855 5855 5855 5854 5854 5854 5853 5852 5852 5851 5850 5848
5730 5733 5737 5744 5749 5751 5752 5755 5758 5762 5764 5766 5770 5774 5777 5779 5780 5782 5784 5785 5787 5789 5790 5795 5800 5800 5798 5805 5815 5818 5818 5818 5816 5816 5817 5819 5819 5821 5823 5824 5826 5828 5830 5831 5832 5833 5834 5835 5837 5839 5840 5842 5842 5843 5843 5844 5844 5844 5845 5846 5847 5849 5849 5849 5850 5850 5851 5852 5852 5853 5852 5852 5852 5852 5852 5851 5851 5850 5850 5849 5849 5848 5847 5847 5846 5844
5723 5726 5731 5738 5743 5746 5749 5752 5756 5759 5761 5763 5766 5769 5772 5774 5776 5778 5780 5782 5784 5786 5787 5793 5797 5797 5798 5801 5808 5813 5814 5814 5814 5813 5812 5814 5814 5815 5817 5818 5821 5823 5825 5826 5828 5829 5831 5832 5833 5834 5836 5837 5838 5839 5839 5839 5840 5840 5841 5842 5843 5844 5844 5844 5845 5846 5846 5847 5848 5848 5848 5848 5847 5847 5847 5847 5846 5846 5845 5845 5845 5844 5843 5842 5841 5840
5717 5721 5728 5734 5739 5743 5746 5749 5753 5755 5758 5760 5763 5766 5769 5771 5774 5776 5778 5780 5782 5783 5784 5788 5791 5792 5796 5798 5802 5806 5809 5809 5810 5810 5809 5809 5810 5810 5812 5813 5816 5818 5820 5822 5824 5825 5827 5828 5829 5829 5831 5832 5834 5834 5834 5835 5835 5836 5836 5837 5839 5839 5840 5840 5841 5841 5842 5843 5843 5843 5843 5843 5843 5843 5843 5842 5842 5841 5841 5840 5840 5839 5838 5837 5836 5835
5718 5722 5731 5735 5737 5741 5741 5744 5747 5749 5750 5753 5756 5759 5763 5767 5769 5771 5773 5776 5777 5777 5778 5782 5785 5788 5793 5796 5796 5799 5804 5805 5805 5806 5806 5805 5806 5806 5807 5808 5810 5812 5814 5816 5819 5821 5822 5824 5824 5825 5826 5827 5829 5829 5829 5830 5831 5832 5832 5833 5833 5834 5835 5835 5836 5837 5837 5838 5838 5838 5838 5838 5838 5838 5838 5837 5837 5836 5836 5835 5835 5834 5834 5833 5831 5830
5714 5721 5727 5730 5733 5736 5736 5740 5743 5744 5746 5749 5751 5754 5759 5764 5765 5767 5769 5772 5773 5773 5774 5778 5782 5785 5789 5791 5791 5794 5799 5802 5801 5802 5803 5802 5802 5802 5803 5803 5804 5806 5808 5811 5813 5815 5816 5818 5819 5820 5821 5822 5823 5824 5825 5825 5826 5827 5828 5828 5829 5830 5830 5831 5832 5832 5832 5833 5833 5833 5833 5833 5833 5833 5833 5832 5832 5831 5831 5830 5830 5829 5829 5828 5827 5825
5711 5717 5721 5723 5725 5727 5730 5734 5736 5738 5741 5744 5748 5755 5759 5759 5761 5764 5765 5766 5768 5768 5771 5775 5777 5780 5783 5787 5789 5790 5792 5796 5797 5798 5799 5799 5799 5799 5799 5799 5799 5801 5803 5805 5806 5808 5809 5811 5813 5815 5816 5817 5819 5819 5820 5821 5822 5823 5823 5824 5825 5825 5826 5827 5827 5827 5827 5827 5828 5828 5828 5828 5828 5828 5827 5827 5826 5826 5826 5826 5825 5825 5824 5823 5822 5820
5707 5712 5714 5716 5718 5720 5724 5726 5728 5731 5736 5741 5746 5751 5752 5751 5755 5759 5759 5761 5764 5764 5767 5770 5773 5776 5780 5783 5786 5787 5786 5788 5792 5794 5795 5795 5796 5795 5795 5795 5795 5796 5797 5799 5800 5801 5803 5805 5807 5809 5810 5812 5813 5815 5815 5816 5817 5818 5819 5820 5820 5821 5821 5821 5821 5821 5822 5822 5823 5823 5823 5822 5822 5822 5822 5822 5821 5821 5821 5821 5820 5820 5819 5818 5816 5815
5702 5704 5706 5711 5714 5715 5717 5719 5723 5729 5735 5739 5743 5745 5745 5747 5750 5752 5754 5757 5759 5761 5763 5765 5767 5772 5777 5780 5782 5782 5782 5783 5786 5789 5790 5791 5792 5792 5792 5792 5792 5791 5791 5793 5794 5795 5797 5799 5801 5803 5804 5806 5808 5809 5810 5811 5812 5814 5814 5815 5816 5816 5816 5816 5816 5816 5817 5817 5817 5817 5817 5817 5817 5817 5817 5816 5816 5816 5816 5816 5815 5814 5813 5812 5810 5809
5694 5696 5701 5705 5707 5709 5713 5718 5724 5729 5733 5736 5738 5740 5742 5745 5746 5749 5752 5754 5756 5758 5760 5761 5763 5769 5775 5778 5778 5778 5778 5778 5780 5782 5784 5786 5787 5788 5788 5788 5788 5787 5786 5787 5789 5790 5791 5792 5794 5796 5798 5800 5802 5803 5805 5806 5807 5808 5809 5810 5810 5811 5811 5811 5811 5811 5811 5811 5812 5812 5812 5812 5811 5811 5811 5810 5810 5810 5810 5810 5809 5808 5806 5805 5804 5803
5688 5691 5696 5699 5701 5706 5712 5717 5722 5726 5729 5732 5733 5736 5740 5742 5744 5745 5747 5751 5753 5754 5756 5757 5758 5764 5772 5774 5774 5775 5775 5774 5776 5777 5779 5781 5781 5782 5783 5783 5784 5783 5782 5782 5783 5785 5785 5786 5788 5790 5793 5794 5796 5798 5799 5800 5802 5803 5803 5804 5804 5805 5805 5806 5806 5806 5806 5806 5806 5806 5806 5806 5805 5805 5805 5804 5804 5804 5804 5804 5803 5802 5800 5799 5799 5797
5684 5688 5691 5695 5699 5704 5709 5713 5717 5720 5723 5725 5727 5732 5734 5735 5738 5739 5741 5745 5748 5749 5751 5752 5752 5759 5770 5771 5769 5770 5771 5770 5771 5772 5773 5775 5777 5778 5778 5779 5780 5779 5779 5779 5779 5780 5781 5781 5782 5784 5787 5789 5790 5792 5793 5794 5795 5796 5797 5798 5798 5799 5799 5799 5800 5800 5800 5800 5801 5801 5800 5800 5800 5799 5799 5799 5799 5798 5798 5798 5797 5796 5794 5793 5793 5792
5680 5683 5686 5690 5694 5698 5703 5708 5711 5714 5715 5718 5723 5727 5728 5730 5734 5734 5735 5741 5742 5744 5747 5746 5746 5756 5767 5768 5766 5766 5766 5765 5764 5765 5767 5769 5772 5773 5774 5775 5776 5776 5776 5775 5775 5776 5777 5777 5777 5779 5781 5783 5784 5786 5787 5788 5789 5790 5791 5791 5792 5792 5793 5793 5793 5794 5794 5794 5795 5795 5794 5794 5794 5794 5793 5793 5793 5793 5792 5792 5791 5790 5789 5788 5787 5786
5676 5677 5680 5684 5686 5689 5695 5699 5703 5707 5711 5715 5719 5721 5723 5727 5729 5728 5732 5735 5735 5739 5743 5739 5743 5755 5762 5763 5763 5762 5761 5761 5759 5758 5760 5762 5765 5767 5769 5770 5770 5771 5771 5771 5771 5772 5772 5772 5772 5773 5774 5776 5778 5779 5780 5781 5782 5783 5784 5785 5786 5786 5787 5787 5788 5788 5788 5789 5789 5789 5789 5788 5788 5788 5788 5787 5787 5786 5786 5785 5785 5784 5783 5782 5780 5779
5673 5674 5676 5678 5679 5683 5689 5695 5700 5705 5708 5710 5712 5715 5720 5723 5722 5725 5729 5728 5729 5736 5738 5736 5744 5755 5756 5757 5758 5756 5757 5757 5753 5753 5755 5756 5757 5759 5761 5763 5764 5764 5765 5766 5766 5766 5766 5767 5767 5767 5768 5769 5770 5772 5772 5774 5775 5776 5778 5779 5780 5781 5781 5782 5782 5782 5783 5783 5783 5783 5783 5783 5782 5782 5782 5781 5781 5780 5780 5779 5778 5778 5777 5775 5774 5773
5669 5671 5675 5678 5682 5687 5693 5698 5702 5705 5706 5708 5712 5717 5719 5719 5720 5723 5723 5724 5730 5734 5732 5736 5746 5750 5750 5752 5752 5749 5752 5753 5749 5748 5750 5751 5751 5752 5753 5755 5756 5757 5758 5760 5760 5761 5761 5761 5761 5761 5762 5762 5763 5765 5766 5767 5769 5770 5772 5773 5774 5775 5775 5775 5776 5776 5776 5777 5777 5777 5777 5777 5776 5776 5776 5775 5775 5774 5773 5773 5772 5771 5770 5768 5767 5766
5665 5669 5674 5679 5682 5686 5691 5695 5698 5701 5704 5708 5711 5712 5713 5715 5716 5716 5717 5724 5730 5726 5727 5737 5742 5742 5745 5748 5745 5742 5746 5748 5746 5745 5745 5744 5745 5746 5746 5747 5748 5749 5751 5752 5754 5755 5755 5755 5755 5756 5756 5756 5757 5758 5759 5761 5762 5764 5765 5766 5767 5768 5768 5769 5769 5770 5770 5771 5771 5771 5771 5771 5770 5770 5769 5769 5768 5768 5767 5766 5765 5764 5763 5762 5760 5759
5662 5667 5672 5675 5677 5680 5684 5688 5692 5695 5698 5700 5702 5703 5706 5707 5708 5710 5715 5723 5723 5718 5726 5737 5735 5735 5742 5743 5740 5738 5739 5741 5743 5742 5741 5740 5739 5740 5741 5741 5742 5742 5743 5744 5746 5747 5748 5749 5750 5750 5750 5751 5751 5752 5753 5754 5755 5757 5758 5759 5760 5761 5762 5763 5763 5764 5764 5764 5765 5764 5764 5764 5764 5763 5763 5762 5762 5761 5760 5759 5758 5757 5756 5755 5754 5752
5659 5664 5667 5669 5673 5676 5680 5683 5686 5689 5691 5693 5696 5698 5699 5701 5704 5709 5715 5719 5716 5715 5724 5730 5727 5730 5738 5739 5737 5735 5733 5733 5736 5737 5738 5737 5735 5735 5736 5735 5736 5736 5736 5736 5738 5739 5741 5743 5744 5745 5745 5746 5746 5747 5747 5748 5749 5750 5751 5752 5753 5754 5755 5756 5756 5757 5758 5758 5758 5757 5757 5757 5757 5757 5756 5756 5755 5755 5754 5753 5752 5750 5749 5748 5747 5745
5655 5658 5661 5664 5668 5670 5673 5677 5680 5683 5686 5689 5691 5693 5696 5699 5703 5707 5711 5711 5709 5712 5721 5724 5721 5726 5734 5735 5732 5731 5729 5727 5727 5728 5731 5731 5730 5730 5730 5729 5730 5730 5730 5730 5731 5733 5734 5736 5737 5738 5739 5740 5740 5741 5741 5742 5743 5744 5744 5745 5746 5747 5748 5749 5749 5750 5750 5750 5750 5750 5750 5750 5750 5750 5749 5749 5748 5747 5746 5745 5744 5743 5742 5741 5740 5738
5648 5651 5655 5659 5662 5664 5668 5671 5673 5677 5680 5681 5684 5690 5694 5697 5699 5702 5706 5706 5706 5711 5717 5717 5716 5724 5731 5729 5727 5726 5723 5721 5722 5722 5721 5721 5721 5723 5723 5724 5724 5724 5725 5726 5726 5726 5727 5728 5729 5731 5732 5732 5733 5734 5735 5736 5737 5738 5739 5739 5740 5741 5741 5742 5742 5742 5743 5743 5743 5743 5743 5742 5742 5742 5742 5741 5740 5740 5739 5738 5737 5736 5735 5734 5733 5731
5642 5646 5650 5653 5655 5659 5662 5665 5668 5670 5670 5673 5683 5690 5692 5692 5694 5698 5700 5702 5704 5707 5710 5710 5714 5721 5723 5721 5722 5721 5717 5716 5717 5717 5714 5713 5713 5714 5716 5718 5718 5719 5720 5720 5720 5721 5721 5721 5722 5723 5724 5725 5725 5726 5727 5729 5730 5731 5732 5733 5734 5734 5734 5734 5735 5735 5735 5735 5735 5735 5735 5735 5735 5735 5734 5734 5733 5732 5731 5731 5730 5729 5728 5727 5725 5724
5639 5642 5645 5648 5651 5654 5656 5660 5662 5661 5663 5674 5686 5688 5685 5687 5691 5693 5696 5700 5700 5701 5703 5706 5710 5714 5714 5715 5717 5715 5712 5711 5709 5708 5709 5709 5708 5708 5710 5713 5714 5714 5713 5713 5715 5715 5715 5716 5717 5717 5717 5717 5718 5720 5721 5722 5723 5724 5725 5726 5727 5727 5727 5727 5727 5727 5728 5728 5728 5728 5728 5727 5727 5727 5726 5726 5725 5725 5724 5723 5722 5721 5720 5720 5719 5718
5635 5638 5640 5643 5647 5649 5652 5655 5655 5655 5665 5678 5683 5681 5680 5684 5688 5689 5692 5694 5694 5694 5697 5700 5705 5708 5708 5708 5709 5707 5706 5704 5701 5701 5704 5705 5703 5705 5707 5709 5710 5708 5707 5707 5709 5709 5709 5710 5711 5712 5711 5711 5712 5713 5714 5715 5716 5717 5718 5719 5720 5720 5721 5721 5721 5721 5721 5721 5720 5720 5720 5720 5720 5719 5719 5718 5718 5717 5717 5716 5716 5715 5714 5713 5712 5711
5629 5633 5636 5639 5642 5645 5648 5651 5653 5659 5668 5675 5675 5676 5678 5681 5682 5683 5684 5687 5688 5689 5691 5694 5699 5701 5699 5700 5701 5700 5699 5697 5696 5700 5701 5698 5698 5701 5703 5704 5703 5701 5701 5702 5703 5703 5703 5703 5704 5706 5706 5706 5705 5705 5706 5707 5709 5710 5711 5712 5713 5714 5714 5715 5715 5714 5714 5714 5713 5713 5713 5712 5712 5712 5711 5711 5711 5711 5710 5710 5709 5708 5707 5707 5706 5705
5623 5626 5630 5633 5637 5642 5646 5650 5655 5660 5665 5667 5670 5674 5675 5676 5677 5676 5677 5682 5685 5684 5684 5688 5692 5694 5693 5694 5694 5693 5691 5689 5693 5699 5697 5691 5692 5695 5695 5696 5695 5694 5695 5696 5696 5697 5697 5696 5698 5699 5700 5700 5699 5698 5699 5700 5701 5702 5703 5704 5705 5706 5707 5708 5708 5707 5707 5707 5706 5706 5706 5706 5706 5705 5705 5705 5705 5705 5704 5704 5703 5702 5701 5700 5700 5698
5618 5622 5626 5629 5632 5637 5641 5646 5650 5654 5658 5663 5667 5668 5668 5669 5670 5669 5670 5677 5681 5679 5679 5683 5687 5688 5688 5687 5686 5686 5684 5685 5693 5697 5690 5684 5688 5689 5688 5689 5689 5688 5690 5690 5690 5690 5690 5690 5691 5692 5693 5693 5692 5692 5693 5693 5694 5695 5696 5697 5698 5698 5700 5700 5700 5699 5700 5699 5699 5699 5699 5699 5699 5699 5699 5699 5698 5698 5697 5697 5696 5695 5695 5694 5693 5691
5613 5617 5622 5624 5628 5633 5637 5640 5644 5649 5655 5659 5661 5662 5662 5663 5664 5664 5666 5673 5677 5674 5674 5677 5679 5680 5681 5680 5680 5680 5680 5684 5692 5691 5681 5679 5685 5684 5682 5684 5683 5683 5684 5684 5684 5684 5683 5684 5684 5685 5685 5686 5685 5686 5686 5686 5687 5688 5689 5690 5691 5692 5693 5693 5692 5693 5693 5692 5692 5693 5693 5693 5693 5693 5692 5692 5691 5691 5690 5690 5689 5688 5688 5687 5685 5684
5605 5609 5613 5617 5623 5628 5632 5635 5640 5646 5650 5652 5654 5656 5657 5657 5659 5660 5662 5668 5670 5668 5668 5670 5671 5674 5675 5675 5675 5677 5679 5683 5686 5681 5676 5677 5679 5678 5678 5679 5678 5677 5678 5678 5678 5678 5677 5678 5678 5678 5678 5678 5678 5679 5680 5680 5682 5682 5683 5684 5684 5685 5685 5685 5686 5686 5686 5686 5686 5686 5686 5686 5686 5686 5685 5684 5684 5684 5683 5683 5682 5681 5680 5679 5678 5676
5599 5603 5608 5613 5619 5623 5626 5631 5636 5641 5643 5645 5648 5650 5650 5651 5652 5654 5657 5660 5661 5662 5664 5664 5666 5670 5671 5671 5672 5674 5675 5677 5678 5676 5674 5673 5672 5671 5673 5673 5672 5672 5672 5671 5671 5671 5671 5672 5672 5672 5673 5672 5673 5674 5674 5675 5676 5676 5677 5678 5678 5678 5678 5679 5679 5680 5680 5680 5680 5679 5679 5679 5679 5679 5678 5678 5677 5677 5676 5676 5674 5673 5673 5672 5671 5669
5597 5600 5605 5609 5614 5618 5622 5626 5630 5634 5638 5640 5641 5642 5643 5644 5646 5651 5656 5657 5656 5659 5661 5659 5661 5665 5665 5665 5667 5668 5668 5670 5671 5670 5669 5668 5666 5665 5666 5666 5667 5666 5665 5665 5665 5665 5665 5666 5667 5667 5667 5667 5668 5668 5669 5669 5670 5670 5671 5671 5671 5672 5672 5672 5673 5673 5674 5674 5673 5673 5673 5672 5672 5672 5671 5671 5670 5670 5669 5668 5667 5667 5666 5665 5664 5663
5597 5599 5603 5607 5611 5615 5618 5621 5625 5631 5636 5636 5635 5638 5640 5643 5647 5653 5655 5653 5652 5654 5654 5654 5656 5658 5659 5660 5661 5661 5662 5663 5663 5663 5663 5662 5661 5660 5659 5660 5661 5660 5660 5660 5659 5659 5660 5660 5661 5661 5662 5662 5662 5663 5663 5663 5664 5664 5664 5665 5665 5666 5666 5666 5666 5667 5667 5667 5666 5666 5666 5666 5665 5665 5664 5664 5663 5663 5662 5662 5661 5660 5659 5658 5657 5656
5593 5597 5602 5606 5609 5611 5614 5618 5624 5630 5633 5633 5633 5636 5639 5642 5645 5647 5647 5646 5646 5646 5647 5649 5651 5653 5654 5655 5655 5656 5656 5656 5656 5657 5657 5656 5656 5654 5653 5653 5654 5654 5655 5654 5654 5654 5655 5655 5655 5656 5656 5656 5657 5657 5657 5657 5658 5658 5658 5659 5659 5659 5659 5660 5660 5660 5660 5660 5660 5660 5659 5659 5659 5658 5658 5657 5657 5656 5656 5655 5654 5654 5653 5652 5651 5650
5589 5594 5598 5601 5605 5609 5613 5618 5623 5626 5628 5629 5630 5632 5634 5635 5637 5639 5640 5640 5641 5641 5643 5645 5646 5648 5649 5649 5650 5650 5650 5650 5651 5651 5651 5651 5651 5650 5649 5649 5649 5650 5650 5649 5649 5649 5649 5650 5650 5650 5650 5651 5651 5652 5652 5652 5653 5653 5653 5653 5653 5653 5653 5653 5654 5654 5654 5654 5653 5653 5653 5653 5652 5652 5652 5651 5651 5650 5650 5649 5648 5648 5647 5646 5645 5644
5586 5589 5592 5596 5600 5604 5609 5613 5616 5618 5619 5622 5624 5626 5628 5629 5630 5631 5633 5634 5634 5635 5637 5639 5641 5642 5643 5644 5645 5645 5644 5645 5645 5645 5646 5646 5645 5645 5644 5644 5644 5645 5645 5645 5645 5645 5645 5645 5646 5646 5646 5646 5646 5647 5647 5648 5648 5648 5648 5648 5648 5648 5648 5648 5648 5648 5648 5648 5648 5647 5647 5647 5646 5646 5645 5645 5644 5644 5643 5643 5642 5641 5640 5639 5638 5637
5580 5583 5587 5590 5594 5598 5602 5605 5607 5609 5612 5615 5618 5620 5622 5622 5623 5625 5626 5628 5629 5631 5632 5634 5635 5636 5637 5638 5639 5640 5639 5640 5640 5640 5641 5641 5640 5640 5640 5639 5639 5640 5641 5641 5641 5641 5641 5641 5641 5642 5642 5642 5642 5643 5643 5643 5643 5642 5642 5642 5642 5642 5642 5642 5642 5642 5642 5642 5642 5642 5641 5641 5640 5640 5639 5639 5638 5637 5637 5636 5635 5634 5633 5632 5631 5629
5575 5578 5581 5584 5587 5592 5597 5600 5602 5604 5607 5609 5611 5613 5616 5617 5619 5621 5622 5624 5626 5626 5627 5628 5629 5630 5631 5632 5633 5634 5634 5634 5634 5635 5635 5635 5635 5635 5635 5635 5635 5635 5636 5636 5637 5637 5636 5636 5637 5637 5637 5637 5638 5638 5638 5638 5638 5637 5637 5637 5637 5637 5637 5637 5637 5637 5637 5637 5636 5636 5636 5635 5634 5634 5633 5632 5632 5631 5630 5629 5628 5627 5626 5625 5623 5622
5571 5573 5577 5581 5585 5588 5591 5594 5597 5598 5600 5603 5606 5609 5612 5614 5615 5616 5617 5619 5620 5619 5620 5621 5622 5623 5624 5624 5626 5627 5628 5628 5629 5629 5629 5630 5630 5630 5630 5630 5630 5630 5630 5631 5632 5632 5632 5632 5632 5632 5632 5632 5633 5633 5633 5633 5633 5633 5633 5632 5632 5632 5632 5632 5632 5631 5631 5631 5631 5630 5629 5629 5628 5627 5626 5626 5625 5624 5623 5622 5621 5620 5618 5617 5615 5614
5565 5569 5574 5576 5578 5581 5585 5588 5591 5594 5597 5601 5604 5605 5607 5608 5609 5610 5611 5612 5612 5612 5612 5613 5615 5616 5617 5618 5619 5620 5621 5622 5623 5623 5624 5625 5625 5625 5625 5625 5625 5625 5625 5625 5626 5627 5627 5627 5627 5628 5627 5627 5628 5627 5627 5627 5627 5627 5627 5627 5627 5627 5626 5626 5626 5625 5625 5625 5624 5624 5623 5622 5621 5620 5619 5619 5618 5617 5616 5614 5613 5612 5610 5609 5607 5606
5562 5566 5569 5571 5574 5579 5582 5585 5589 5592 5594 5597 5598 5599 5599 5599 5600 5601 5603 5603 5603 5603 5604 5606 5608 5610 5612 5613 5614 5615 5616 5616 5617 5618 5618 5619 5619 5619 5619 5619 5619 5619 5619 5620 5620 5621 5621 5622 5622 5622 5622 5622 5622 5622 5622 5622 5621 5621 5621 5621 5621 5620 5620 5620 5619 5619 5619 5618 5617 5617 5616 5615 5614 5613 5612 5611 5610 5609 5608 5607 5605 5604 5602 5601 5599 5598